Temp_Advection
nan nan nan nan nan nan nan nan nan nan nan nan nan nan nan nan nan nan nan nan nan nan nan nan nan nan nan nan nan nan nan nan nan nan nan nan nan nan nan nan nan nan nan nan nan nan nan nan nan nan nan nan nan nan nan nan nan nan nan nan nan nan nan nan nan nan nan nan nan
nan 1 1 1 1 1 0 0 -0 -1 -1 -1 -1 -1 -0 -0 0 0 1 1 0 0 0 0 0 0 0 0 0 0 0 0 0 0 0 0 0 0 0 0 0 0 0 0 0 0 0 0 0 0 0 0 0 0 0 0 0 0 0 -0 -0 0 0 0 0 0 0 0 nan
nan 1 1 1 0 0 -0 -1 -1 -1 -1 -1 -1 -0 0 0 1 1 1 0 0 0 0 0 0 0 0 0 0 0 0 0 0 0 0 0 0 0 0 0 0 0 0 0 0 0 0 0 0 0 0 0 0 0 0 0 0 0 0 0 -0 -0 0 0 0 0 0 0 nan
nan 1 1 0 -0 -1 -1 -1 -1 -1 -1 -1 -0 0 0 1 1 1 0 0 0 0 0 0 0 0 0 0 0 0 0 0 0 0 0 0 0 0 0 0 0 0 0 0 0 0 0 0 0 0 0 0 0 0 0 0 0 0 0 0 0 -0 -0 0 0 0 0 0 nan
nan 1 1 0 -0 -1 -1 -1 -1 -1 -0 -0 0 0 0 0 0 0 0 0 0 0 0 0 0 0 0 0 0 0 0 0 0 0 0 0 0 0 0 0 0 0 0 0 0 0 0 0 0 0 0 0 0 0 0 0 0 0 0 0 0 0 -0 -0 -0 -0 0 0 nan
nan 1 0 -0 -1 -1 -1 -1 -1 -0 -0 0 0 0 0 0 0 -0 0 0 0 0 0 0 0 0 0 0 0 0 0 0 0 0 0 0 0 0 0 0 0 0 0 0 0 0 0 0 0 0 0 0 0 0 0 0 0 0 0 0 0 0 0 -0 -0 -0 -0 0 nan
nan 0 -0 -1 -1 -1 -1 -1 -0 -0 0 0 0 0 0 0 0 0 -0 0 0 0 0 0 0 0 0 0 0 0 0 0 0 0 0 0 0 0 0 0 0 0 0 0 0 0 0 0 0 0 0 0 0 0 0 0 0 0 0 0 0 0 0 0 -0 -0 -0 0 nan
nan 0 -0 -1 -1 -1 -1 -1 -0 -0 0 0 0 0 0 0 0 0 0 0 0 0 0 1 1 1 0 0 0 0 0 0 0 0 0 0 0 0 0 0 0 0 0 0 0 0 0 0 0 0 0 0 0 0 0 0 0 0 0 0 0 0 -0 -0 -0 -0 -0 -0 nan
nan -0 -1 -1 -1 -1 -0 -0 -0 0 0 0 1 1 0 0 0 0 0 0 0 1 1 1 1 1 0 0 0 0 0 0 0 0 0 0 0 0 -0 -0 -0 0 0 0 0 0 0 0 0 0 0 0 0 0 0 0 0 0 0 0 0 0 0 -0 -0 -0 -0 -0 nan
nan -1 -1 -1 -0 -0 0 0 0 0 1 1 1 0 0 0 0 0 0 0 1 1 1 1 1 0 0 0 0 0 0 0 0 1 0 0 0 0 -0 -0 -0 0 0 0 0 0 0 0 0 0 0 0 0 0 0 0 0 0 0 0 0 0 0 0 -0 -0 -0 -0 nan
nan -0 -0 -0 0 0 0 0 0 0 0 0 0 0 0 0 0 0 1 1 1 1 1 1 0 0 0 0 0 0 0 0 1 0 0 0 0 0 0 0 0 0 0 0 0 0 0 0 0 0 0 0 0 0 0 0 0 0 0 0 0 0 0 0 0 -0 -0 -0 nan
nan 0 0 0 0 0 0 0 -0 -0 -0 -0 -0 -0 0 0 0 1 1 1 1 1 1 0 0 0 0 0 0 0 0 1 1 0 0 0 -0 -0 0 0 0 0 0 0 0 0 0 0 0 0 0 0 0 0 0 0 0 0 0 0 0 0 0 0 0 0 -0 -0 nan
nan 0 0 0 0 -0 -0 -1 -1 -1 -1 -1 -0 0 0 1 1 1 1 1 1 1 0 0 0 0 0 0 0 0 1 1 0 0 0 0 0 0 0 0 0 0 0 0 0 0 0 1 0 0 0 0 0 0 0 0 0 0 0 0 0 0 0 0 0 0 0 -0 nan
nan -0 -0 -1 -1 -1 -1 -1 -1 -1 -1 0 1 1 1 2 1 1 1 1 0 0 0 0 0 0 0 0 0 1 1 1 0 0 0 -0 0 0 0 0 0 0 0 0 0 0 1 1 0 0 0 0 0 0 0 0 0 0 0 0 0 0 0 0 0 0 -0 -0 nan
nan -1 -1 -1 -1 -1 -1 -1 -1 -0 1 2 2 2 2 1 1 1 0 0 0 0 0 0 0 0 1 1 1 1 0 0 0 0 0 0 0 0 0 0 0 0 0 0 0 1 1 1 0 0 0 0 0 0 0 0 0 0 0 0 0 0 0 0 0 0 -0 -0 nan
nan -0 -0 -0 -0 -0 -0 0 1 2 3 3 2 2 1 1 0 0 0 0 0 1 1 1 1 1 1 1 1 1 0 0 0 0 0 0 0 0 0 0 0 0 0 1 1 1 1 1 0 0 0 0 0 0 0 0 0 0 -0 -0 -0 0 0 0 0 0 -0 -0 nan
nan 0 0 1 1 1 1 2 2 3 2 2 1 1 0 -0 -0 -0 0 1 1 1 1 1 1 1 1 1 0 0 0 0 0 0 0 0 0 0 0 0 0 0 1 1 1 0 0 0 0 0 0 0 0 0 0 0 0 0 0 0 -0 0 0 0 0 0 -0 -0 nan
nan 0 1 1 1 1 1 2 2 2 1 1 0 -0 -0 -0 0 1 1 1 1 1 1 1 0 0 0 0 0 0 0 0 0 0 0 0 0 0 0 0 0 1 1 1 1 1 0 0 0 0 0 0 0 0 0 0 0 0 0 0 0 0 0 0 0 0 -0 -0 nan
nan 1 1 1 1 1 1 1 1 1 0 0 0 0 0 1 1 2 2 1 1 1 0 0 0 0 0 0 0 0 0 0 0 0 0 0 0 0 0 0 0 1 1 1 1 1 1 0 0 0 0 0 0 0 0 -0 0 0 0 0 0 0 0 0 0 0 0 -0 nan
nan 1 1 1 1 1 1 1 1 1 1 1 1 1 2 2 2 2 1 1 0 0 0 0 0 0 0 0 0 0 0 0 0 0 0 0 0 0 0 0 1 1 1 1 1 1 1 1 0 0 0 0 0 0 -0 -0 -0 -0 -0 -0 0 0 0 0 0 0 0 0 nan
nan 2 2 2 2 2 1 1 1 1 1 1 2 2 2 2 1 1 1 0 0 0 0 0 0 0 0 0 0 0 0 0 0 0 0 0 0 0 0 0 1 0 1 1 1 1 1 1 0 0 0 0 0 -0 -0 -0 -0 -0 -0 -0 -0 0 0 0 0 0 0 0 nan
nan 2 2 2 2 1 1 1 1 1 2 2 2 2 1 1 1 0 0 0 0 0 0 0 0 0 0 0 0 0 0 0 -0 0 0 0 0 0 0 0 0 0 0 1 1 1 1 1 0 0 0 0 0 0 0 -0 -0 -0 -0 -0 -0 0 0 0 0 0 0 -0 nan
nan 2 1 1 1 1 1 1 1 1 1 1 1 1 1 0 0 0 0 0 0 0 0 0 0 0 0 0 0 0 0 -0 -0 -0 0 0 0 0 0 0 0 1 1 1 1 1 1 1 0 0 0 0 0 0 0 0 0 -0 -0 -0 0 0 0 0 0 0 -0 -0 nan
nan 1 1 1 1 1 1 1 1 1 1 1 1 1 0 0 0 0 0 0 0 0 0 0 0 0 0 0 0 0 0 -0 -0 0 0 0 0 0 0 0 0 1 1 1 1 1 0 0 0 0 0 0 0 0 0 0 0 0 -0 0 0 0 0 0 0 0 -0 -0 nan
nan 1 1 1 1 1 1 1 1 1 1 1 1 1 0 0 0 0 0 1 0 0 0 0 0 0 0 0 0 0 0 0 0 0 0 0 0 0 0 0 1 1 1 1 1 1 1 0 0 0 0 -0 -0 -0 -0 0 0 0 0 -0 0 0 0 0 0 0 0 -0 nan
nan 1 1 1 1 1 1 1 1 1 1 1 1 0 0 0 0 0 0 1 0 0 0 0 0 0 0 0 0 0 0 0 0 0 0 0 0 0 0 0 1 1 1 1 1 1 1 1 0 0 -0 -0 -0 -1 -1 -0 -0 -0 0 0 0 0 0 0 0 0 0 0 nan
nan 1 1 1 1 2 1 1 1 1 1 1 1 0 0 0 0 0 0 0 0 0 0 0 0 0 0 0 0 0 0 0 0 0 0 0 0 0 0 0 1 1 1 1 1 1 1 1 0 0 0 -0 -0 -0 -1 -1 -1 -0 -0 -0 0 0 0 0 -0 0 0 0 nan
nan 1 1 1 2 2 1 1 1 1 1 1 0 0 0 0 0 0 0 0 0 0 0 0 0 0 0 0 0 0 0 0 0 0 0 0 0 0 0 0 1 1 1 1 1 1 1 1 1 0 0 0 -0 -0 -0 -0 -0 -0 -0 -0 -0 -0 -0 -0 -0 -0 -0 0 nan
nan 1 1 2 2 2 1 1 1 1 1 0 0 0 0 0 0 0 0 0 0 0 0 0 0 0 0 0 0 0 0 0 0 0 -0 0 0 0 0 0 1 1 1 1 1 1 1 1 1 1 0 0 0 -0 -0 -0 -0 -0 -0 -0 -0 0 -0 -0 -0 -0 -0 -0 nan
nan 1 2 2 2 1 1 1 1 1 1 0 0 0 0 0 0 0 0 0 0 0 0 0 0 0 0 0 0 0 0 0 0 -0 -0 0 0 0 0 0 1 1 1 1 1 1 1 1 1 1 1 0 0 0 -0 -0 -0 -0 -0 -0 0 0 0 0 -0 -0 -0 -0 nan
nan 2 2 2 2 1 1 1 1 1 0 0 0 0 0 0 0 0 0 0 0 0 0 0 0 0 0 0 0 0 0 0 0 -0 0 0 0 0 0 0 1 1 1 1 1 1 1 1 1 1 1 0 0 0 0 0 0 -0 -0 -0 0 0 0 0 0 -0 -0 -0 nan
nan 2 2 2 2 1 1 1 1 1 0 0 0 0 0 0 0 0 0 0 0 0 0 0 0 0 0 0 0 0 0 0 0 0 0 0 0 0 0 0 0 1 1 1 1 1 1 1 1 1 1 0 0 0 0 0 0 0 -0 -0 0 0 0 0 0 0 -0 0 nan
nan 2 2 2 2 2 1 1 1 0 0 0 0 0 0 0 0 0 0 0 0 0 0 0 0 0 0 0 0 0 0 0 0 0 0 0 0 0 0 0 0 1 1 1 1 1 1 1 1 1 0 0 0 0 0 0 0 0 0 0 0 0 0 0 0 0 0 0 nan
nan 2 2 2 2 2 1 1 0 0 0 -0 0 0 0 0 0 0 0 0 0 0 0 0 0 0 0 0 0 0 0 0 0 0 0 0 0 0 0 0 0 1 1 1 1 1 1 1 1 1 1 0 0 0 0 0 0 0 0 0 0 0 0 0 -0 -0 0 0 nan
nan 2 2 2 2 1 1 0 0 -0 -0 -0 -0 0 0 0 0 0 0 0 0 0 0 0 0 0 0 0 0 0 0 0 0 0 0 0 0 0 0 0 0 0 1 1 1 1 1 1 1 1 1 0 0 0 0 0 0 0 0 0 0 0 0 0 0 -0 -0 0 nan
nan 2 2 1 1 1 0 0 -0 -0 -0 -0 -0 0 0 0 0 0 0 0 0 0 0 0 0 0 0 0 0 0 0 0 0 0 0 0 0 -0 -0 0 0 0 1 1 1 1 1 1 1 1 1 0 0 0 0 0 -0 -0 0 0 0 0 0 0 0 -0 -0 -0 nan
nan 2 1 1 1 0 0 -0 -0 -0 -0 -0 0 0 0 0 0 0 0 0 0 0 0 0 0 0 0 0 0 0 0 0 0 0 0 0 0 0 -0 -0 0 0 1 1 1 1 1 1 1 1 1 0 0 0 0 0 -0 -0 -0 -0 0 0 0 0 -0 -0 -1 -0 nan
nan 1 1 1 0 0 -0 -0 -0 -0 -0 -0 0 0 0 0 0 0 0 0 0 0 0 0 0 0 0 0 0 0 0 0 0 0 0 0 0 -0 -0 -0 -0 0 1 1 1 1 1 1 1 1 1 1 0 0 0 0 0 -0 -0 -0 -0 -0 -0 -0 -0 -1 -1 -1 nan
nan 1 1 0 0 -0 -0 -1 -1 -0 -0 0 0 0 0 0 0 0 0 1 1 1 0 0 0 0 0 0 0 0 0 0 0 0 0 0 0 -0 -0 -0 -0 0 1 1 1 1 1 1 1 1 1 1 1 1 0 0 0 -0 -0 -0 0 0 0 -0 -1 -1 -1 -1 nan
nan 1 1 0 -0 -0 -0 -1 -0 -0 0 0 1 0 0 0 1 1 1 1 1 1 1 0 0 0 0 0 0 0 0 0 0 0 0 0 0 -0 -0 -0 -0 -0 0 1 1 1 1 1 1 1 1 1 1 1 0 0 0 -0 -0 -0 -0 0 0 0 -0 -1 -1 -1 nan
nan nan nan nan nan nan nan nan nan nan nan nan nan nan nan nan nan nan nan nan nan nan nan nan nan nan nan nan nan nan nan nan nan nan nan nan nan nan nan nan nan nan nan nan nan nan nan nan nan nan nan nan nan nan nan nan nan nan nan nan nan nan nan nan nan nan nan nan nan
Wind_Speed
26 26 25 24 24 24 24 24 24 25 25 25 26 27 27 28 30 30 31 30 29 28 27 25 24 23 22 21 20 19 18 18 18 18 18 18 18 19 19 19 19 19 20 21 21 22 22 23 23 24 24 24 24 24 24 24 24 23 23 23 22 21 20 19 18 18 17 17 18
25 25 25 25 25 25 25 26 26 26 26 26 26 26 27 28 29 30 30 29 28 27 26 25 24 23 21 20 20 19 18 18 18 18 18 19 19 19 19 19 19 20 20 21 21 22 22 23 23 24 24 24 24 24 24 24 23 23 22 21 21 20 19 18 17 17 17 17 17
25 25 25 25 26 27 27 27 27 27 26 26 26 26 27 28 29 29 29 29 28 27 26 25 24 22 21 20 20 19 18 18 18 18 19 19 19 19 19 19 20 20 20 21 22 22 23 23 23 24 24 24 24 24 24 23 23 22 21 20 20 19 18 17 17 17 17 17 17
25 26 26 27 28 28 29 29 28 27 27 26 26 26 27 28 28 29 29 28 28 27 26 24 23 22 21 20 19 19 18 18 18 19 19 19 19 19 19 19 20 20 21 21 22 22 23 23 24 24 24 24 24 24 23 22 22 21 20 19 18 18 17 17 17 17 17 17 17
27 27 28 29 29 29 29 29 28 27 27 27 27 27 27 28 28 29 28 28 27 26 25 24 23 22 21 20 19 19 19 19 19 19 19 19 19 19 19 19 20 20 21 22 22 23 23 23 24 24 24 24 23 23 22 21 21 20 19 18 18 17 17 17 17 17 17 17 18
28 28 29 30 30 29 29 28 28 27 27 27 27 27 28 28 29 29 28 28 27 26 25 24 23 22 21 20 19 19 19 19 19 19 19 19 19 19 19 20 20 21 21 22 22 23 23 23 24 24 24 23 23 22 21 20 19 19 18 18 17 17 17 17 17 17 18 18 18
29 29 30 30 30 29 29 28 28 27 27 27 27 27 28 28 29 28 28 27 27 26 25 24 23 22 21 20 19 19 19 19 19 19 19 19 19 19 19 20 20 21 22 22 23 23 23 23 23 24 23 23 22 22 21 20 19 18 17 17 17 17 17 17 18 18 18 18 19
29 30 30 30 30 29 29 28 27 27 27 27 27 28 28 28 28 28 28 27 26 26 25 24 23 22 21 20 19 19 19 19 19 19 19 19 19 19 19 20 21 21 22 22 23 23 23 23 23 23 23 22 21 21 20 19 18 17 17 17 17 17 18 18 18 18 19 19 19
30 30 30 30 30 29 28 28 27 27 27 27 28 28 28 28 28 28 27 27 26 26 25 24 23 21 21 20 19 19 19 19 19 19 19 19 19 19 19 20 21 21 22 22 23 23 23 23 23 23 22 21 21 20 19 19 18 17 17 17 17 17 18 18 19 19 20 20 20
31 31 31 30 30 29 28 27 27 27 27 27 27 28 28 27 27 27 27 27 26 25 24 23 22 21 20 20 19 19 20 19 19 19 18 18 18 19 20 20 21 21 22 22 22 22 23 22 22 22 22 21 20 19 19 18 18 17 17 17 17 18 18 19 19 20 20 20 21
32 32 31 31 30 29 28 27 27 27 27 27 27 27 28 28 28 28 27 27 26 25 24 23 22 21 20 20 20 20 20 19 19 18 18 18 18 19 20 20 21 21 22 22 22 22 22 22 22 21 21 20 19 19 18 18 18 17 17 18 18 18 18 19 20 20 21 21 21
32 32 31 30 29 28 27 27 27 27 27 28 28 28 29 29 29 28 28 27 26 25 24 23 22 21 20 20 20 20 19 19 18 18 18 18 18 19 20 20 21 21 21 22 22 22 22 22 21 21 20 19 19 18 18 18 18 18 18 18 18 19 19 19 20 21 21 22 22
32 31 30 29 28 28 27 27 28 28 29 29 30 30 30 30 30 29 28 27 25 24 23 23 22 21 21 20 20 19 19 18 17 17 17 18 18 19 20 20 21 21 21 21 22 22 22 21 21 20 19 19 18 18 18 18 18 18 18 19 19 19 20 20 20 21 21 22 22
32 31 30 29 28 28 28 29 29 30 31 32 32 32 32 31 30 29 28 26 25 24 23 22 22 21 21 20 20 19 18 17 17 17 17 18 18 19 19 20 20 21 21 21 21 21 21 21 20 19 19 18 18 18 18 18 18 18 19 19 19 20 20 20 21 21 22 22 22
32 32 31 30 30 30 31 31 32 33 34 34 34 34 32 31 29 28 27 26 25 24 23 23 22 22 21 20 19 18 17 16 16 17 17 18 18 19 19 20 20 21 21 21 21 21 21 20 20 19 18 18 18 18 18 18 19 19 19 20 20 20 21 21 21 22 22 23 23
33 33 33 33 33 33 34 35 35 36 36 35 34 33 31 30 29 28 27 26 25 24 24 23 22 21 20 19 18 17 16 16 16 17 17 18 18 19 19 19 20 20 21 21 21 21 20 20 19 19 18 18 18 18 18 19 19 19 20 20 21 21 21 21 22 22 23 23 23
35 35 35 34 35 35 36 36 36 36 35 34 32 31 30 29 28 28 27 26 25 25 24 23 21 20 19 17 17 16 16 16 16 17 17 17 18 18 19 19 20 20 21 21 21 20 20 20 19 19 18 18 18 18 18 19 19 20 20 21 21 21 22 22 22 23 23 23 23
35 35 35 35 36 36 36 36 35 34 33 32 31 30 29 29 28 28 27 26 25 24 22 21 20 19 17 16 16 16 16 16 16 16 17 17 17 18 19 20 20 20 20 20 20 20 19 19 19 19 19 18 18 19 19 19 20 20 21 21 21 22 22 22 23 23 23 23 24
36 36 36 36 36 36 36 35 34 33 32 31 30 30 30 29 29 28 27 25 24 22 21 19 18 17 17 16 16 16 16 15 16 16 16 17 17 18 19 20 20 20 20 20 20 19 19 19 19 19 19 19 19 19 20 20 20 21 21 22 22 22 23 23 23 23 23 24 24
36 36 36 36 36 36 35 34 33 32 31 31 30 30 30 29 28 27 25 24 22 21 19 18 17 17 16 16 16 15 15 15 15 15 16 17 17 18 19 19 20 20 20 20 19 19 19 19 19 19 19 19 19 20 20 21 21 22 22 22 23 23 23 23 23 24 24 24 24
36 36 36 36 36 35 35 33 32 31 31 30 30 30 29 28 27 25 23 22 20 19 18 18 17 17 16 16 15 15 15 15 15 15 16 17 18 18 19 19 19 19 19 19 19 19 19 19 19 19 19 19 20 20 21 21 22 22 23 23 23 24 24 24 24 24 24 24 24
36 36 36 36 35 34 33 32 31 31 30 30 30 29 28 26 25 23 22 21 20 19 18 17 17 16 16 15 15 14 14 14 14 15 16 17 17 18 18 19 19 19 19 19 19 19 19 19 19 19 19 20 20 21 21 22 22 23 23 24 24 24 24 24 24 25 25 25 25
35 35 35 34 34 33 32 31 30 30 30 30 29 28 27 25 24 23 22 21 20 19 18 17 17 16 15 15 14 14 13 14 14 15 16 17 17 17 18 18 18 19 19 19 19 19 19 19 19 19 20 20 21 21 22 22 23 23 24 24 24 24 25 25 25 25 25 25 26
35 34 33 33 32 31 30 30 30 30 31 30 29 28 27 25 24 23 22 21 20 19 18 17 16 15 15 14 14 13 13 13 14 15 16 16 17 17 17 18 19 19 19 19 19 19 19 19 19 20 20 21 22 22 22 23 23 24 24 24 25 25 25 25 25 26 26 26 26
33 33 32 31 31 30 30 30 31 31 31 31 30 28 26 25 24 23 21 20 19 18 17 16 16 15 14 13 13 12 12 13 13 14 15 15 16 17 17 18 19 19 19 19 19 19 19 19 20 20 21 22 23 23 24 24 24 24 25 25 25 26 26 26 26 26 26 26 27
32 32 31 31 30 30 30 31 32 32 32 31 29 28 26 25 23 22 21 20 19 18 17 16 15 14 13 12 12 12 12 12 13 13 14 15 16 17 18 18 19 19 20 19 19 19 20 20 20 21 22 23 24 24 25 25 25 25 26 26 26 26 26 26 26 26 26 26 27
32 32 31 30 30 31 31 32 33 32 32 31 29 27 26 24 23 22 21 20 19 18 16 15 14 13 12 11 11 11 11 12 12 13 14 14 16 17 18 19 19 20 20 20 20 20 20 20 21 21 22 23 24 25 25 26 26 26 26 27 27 27 27 27 27 27 27 27 27
32 31 31 31 31 31 32 33 33 33 32 30 28 27 25 24 23 22 21 20 19 17 16 15 13 12 11 11 11 11 11 12 12 13 14 15 16 17 18 19 19 20 20 20 20 20 20 21 21 22 22 23 24 25 25 26 27 27 27 27 27 27 27 28 28 28 28 28 28
32 31 31 31 31 32 33 33 33 33 31 30 28 26 25 24 22 21 21 20 18 17 15 14 13 12 11 10 11 11 11 12 12 13 14 15 16 17 18 19 20 20 20 20 21 21 21 21 22 22 23 23 24 25 26 26 27 27 27 27 27 27 28 28 28 28 28 28 28
31 31 31 31 32 33 34 34 33 32 31 29 28 26 25 23 22 21 20 19 18 16 15 13 12 11 11 10 10 11 11 12 12 13 14 15 16 18 19 19 20 20 20 21 21 21 22 22 22 23 23 24 24 25 26 27 27 27 28 28 28 27 27 28 28 28 28 28 29
31 31 31 32 33 34 34 33 33 32 30 29 27 26 25 23 22 21 20 19 17 16 15 13 12 11 11 11 11 11 11 12 13 14 15 16 17 18 19 20 20 21 21 21 22 22 22 23 23 23 24 24 25 26 26 27 27 28 28 28 28 28 28 28 28 28 28 28 29
31 31 32 33 34 34 34 33 32 31 30 29 27 26 24 23 22 21 20 18 17 16 14 13 12 12 11 11 11 11 12 13 14 15 16 17 18 18 19 20 21 21 21 22 22 23 23 23 24 24 24 25 25 26 26 27 27 28 28 28 28 28 28 28 28 28 28 28 29
30 31 32 33 34 34 34 33 32 31 30 28 27 25 24 23 22 21 20 19 17 16 14 13 12 12 12 11 12 12 13 14 15 16 17 18 18 19 20 21 21 22 22 22 23 24 24 24 25 25 25 25 26 26 27 27 28 28 28 29 29 29 29 29 29 28 28 28 28
30 31 33 34 34 34 34 33 32 31 29 28 26 25 24 23 22 21 20 19 17 16 14 13 13 12 12 12 12 13 14 15 16 17 18 19 19 20 21 22 22 22 23 23 24 24 25 25 25 25 26 26 26 27 27 28 28 28 29 29 29 29 29 29 29 29 29 29 29
30 32 33 34 34 34 33 32 31 30 29 28 26 25 24 23 22 21 19 18 17 15 15 14 13 13 13 13 13 14 15 16 17 18 19 20 20 21 22 23 23 23 24 24 25 25 26 26 26 26 26 26 27 27 28 28 28 29 29 29 29 29 29 29 29 29 29 29 29
29 32 33 34 34 34 33 32 31 30 29 27 26 25 24 23 22 21 19 18 17 16 15 15 14 14 14 14 14 15 16 17 18 19 20 21 21 22 23 24 24 25 25 25 26 26 26 26 26 26 27 27 28 28 28 29 29 29 30 30 30 30 29 30 30 30 30 30 29
29 32 33 34 34 34 33 32 31 29 28 27 26 25 24 23 22 20 19 18 17 16 16 16 15 15 15 15 16 17 18 18 19 20 21 22 22 23 24 25 25 26 26 26 27 27 27 27 27 27 27 27 28 28 29 29 30 30 30 30 30 30 30 30 30 30 31 30 30
30 32 33 34 34 33 32 31 30 29 28 27 26 25 24 22 21 20 19 19 18 17 17 16 16 16 16 17 17 18 19 20 20 21 22 23 23 24 25 26 26 27 27 27 27 27 28 28 28 28 28 28 28 29 29 29 30 30 31 31 31 31 31 31 31 31 31 31 31
30 32 33 34 33 33 31 30 29 28 27 26 25 24 23 22 21 20 19 19 18 18 17 17 17 17 17 18 19 20 20 21 22 22 23 24 24 25 26 27 28 28 28 28 28 28 28 28 28 28 28 28 28 29 29 30 30 31 31 31 31 31 31 31 31 31 31 31 31
30 32 33 33 33 32 31 29 28 27 26 25 24 24 23 22 21 20 19 19 19 18 18 18 18 18 19 20 21 21 22 22 23 23 24 25 26 26 27 28 29 29 29 29 29 29 29 28 28 28 28 28 29 29 29 30 30 31 31 31 31 31 31 31 30 30 30 31 31
30 32 32 32 32 31 29 28 27 26 25 25 24 23 22 21 21 20 20 20 19 19 19 19 19 20 21 21 22 23 23 23 24 24 25 26 27 28 28 29 30 31 31 30 30 29 29 29 28 28 28 28 29 29 29 30 30 31 32 31 31 31 30 30 30 29 30 30 31
Wind_Direction
210 211 212 214 217 220 223 225 226 228 229 229 230 230 229 227 226 224 222 222 222 224 226 228 232 235 239 244 249 255 260 265 270 275 279 282 284 287 290 293 296 299 302 305 307 309 311 313 314 315 316 317 317 318 318 319 320 320 320 320 320 320 321 322 322 323 323 323 323
210 211 213 216 218 221 224 226 227 227 227 228 228 228 228 226 225 223 222 222 222 224 226 229 233 236 241 245 251 256 262 266 271 275 278 281 284 286 289 292 296 299 302 305 307 309 311 313 315 316 317 317 318 318 319 319 319 320 320 320 319 320 321 321 322 322 322 322 322
210 212 214 216 219 222 224 226 227 226 226 226 226 225 225 224 223 222 221 221 223 225 227 230 234 238 242 247 252 257 262 267 271 275 278 280 283 286 289 292 296 299 303 305 308 310 312 314 315 316 317 317 317 318 318 318 319 319 319 319 319 320 320 321 321 322 322 322 321
210 212 214 217 221 223 225 226 227 226 225 224 222 222 221 221 221 220 220 221 223 226 228 232 235 239 243 248 252 258 263 267 271 274 277 280 282 285 289 293 297 300 303 306 309 311 313 315 316 316 316 317 317 317 317 318 318 319 319 319 319 319 320 320 321 321 321 321 321
210 213 215 219 222 224 226 227 227 226 224 222 220 218 218 218 218 219 220 222 224 227 230 233 236 240 244 248 253 258 263 267 271 274 276 279 282 286 289 294 298 301 305 307 310 312 314 315 315 316 316 316 316 316 316 317 318 318 318 318 319 319 320 320 321 321 321 321 321
211 213 217 220 223 225 226 227 226 225 223 220 218 216 216 216 217 218 220 222 225 228 231 234 237 240 244 248 252 258 263 267 270 273 276 279 282 286 291 295 299 303 306 309 311 313 314 314 315 315 315 315 315 315 316 317 317 318 318 318 318 319 320 320 320 321 321 321 321
212 215 218 221 223 225 226 226 225 223 221 219 217 216 216 216 217 219 221 223 226 229 232 235 238 240 244 248 253 258 263 267 270 273 276 279 283 288 292 297 301 304 307 309 311 312 313 314 314 314 313 314 314 315 315 316 317 318 318 318 319 319 320 320 320 320 321 321 321
214 216 219 222 224 225 225 225 223 221 218 217 216 216 216 217 218 220 222 225 227 230 233 235 238 240 244 248 253 258 263 266 270 273 276 280 285 290 294 299 302 305 308 310 311 312 312 313 313 312 312 313 313 314 315 316 317 318 318 318 319 319 320 320 320 320 321 321 321
214 217 219 222 224 225 225 224 222 219 217 216 215 215 216 217 219 222 224 226 229 231 233 235 237 240 244 249 254 259 263 267 270 273 278 282 287 292 296 300 303 306 308 309 310 311 311 311 311 311 311 312 313 314 315 316 317 317 318 318 319 319 320 320 320 320 321 321 321
214 217 219 221 223 223 223 221 219 217 216 215 215 215 216 218 221 223 225 228 229 231 232 234 236 240 244 249 255 259 263 267 271 275 279 284 289 294 298 301 303 305 307 308 309 310 310 310 310 310 310 311 312 313 314 315 316 317 317 318 318 319 320 320 320 320 320 321 321
216 218 219 221 222 221 220 217 215 214 214 214 215 216 217 219 221 223 225 227 228 229 231 234 237 241 245 250 255 259 264 267 271 276 281 286 291 295 298 301 303 305 306 307 308 309 309 309 309 309 310 310 312 313 314 315 315 316 317 317 318 318 319 319 319 320 320 320 321
217 218 220 221 221 220 218 215 213 213 213 213 215 217 218 220 222 223 225 225 226 228 231 234 237 241 246 251 255 260 264 268 272 278 283 288 292 295 298 300 302 304 306 307 307 307 307 307 307 308 309 310 311 312 313 314 315 315 316 317 317 318 318 319 319 319 319 320 320
217 219 220 221 220 219 217 216 215 214 214 215 216 218 219 220 222 222 223 224 225 228 231 234 238 243 247 252 256 260 264 269 274 279 284 288 292 295 298 300 302 304 305 306 306 306 306 306 306 307 308 309 310 311 312 313 313 314 315 316 316 317 318 318 318 318 318 318 319
218 219 220 221 220 220 219 218 218 218 218 217 218 218 219 219 220 221 222 223 225 228 232 236 240 244 248 252 256 260 264 270 275 280 285 289 292 295 298 300 302 304 305 305 305 304 304 304 305 306 307 308 309 310 311 311 312 313 314 314 315 316 317 317 317 317 317 317 317
220 221 222 222 221 221 220 220 220 220 219 218 218 218 218 218 219 220 222 224 227 230 233 237 240 244 248 252 256 260 265 271 276 281 285 289 293 295 298 300 302 303 304 304 303 303 302 303 304 305 306 307 308 309 309 310 311 312 313 314 314 315 316 316 316 316 315 315 316
222 222 222 222 222 221 221 220 220 219 218 216 216 216 217 218 219 221 223 225 228 231 233 236 240 243 247 252 256 261 267 272 277 282 286 290 293 296 298 300 302 303 302 302 301 301 302 302 303 304 305 306 307 307 308 309 310 311 312 313 314 314 315 315 315 314 314 314 314
222 223 223 222 221 221 221 220 219 217 216 215 216 216 217 219 221 223 225 227 229 231 233 236 239 243 247 252 257 263 268 273 278 283 287 291 294 296 299 300 301 301 300 300 300 300 301 302 303 304 304 305 306 306 307 308 309 310 311 312 313 313 314 314 313 313 313 313 313
222 223 223 222 222 221 221 220 219 218 217 216 217 218 220 221 223 224 226 227 228 230 233 236 240 244 248 253 258 264 269 274 280 284 288 291 295 297 299 300 300 299 299 298 299 299 300 301 302 303 304 304 305 306 307 307 308 309 310 311 312 312 312 312 312 312 312 312 313
224 224 224 223 222 222 221 221 219 218 218 218 219 220 221 222 223 224 225 226 227 230 233 237 241 245 250 254 260 265 270 276 281 285 289 293 296 298 299 299 298 298 298 298 298 299 300 301 301 302 303 304 305 306 307 307 308 309 310 310 310 310 310 310 310 311 311 311 312
226 225 225 224 223 222 221 220 219 218 218 218 219 220 221 221 222 222 223 225 228 231 234 238 242 246 251 256 261 267 272 277 282 287 291 295 297 298 298 297 297 297 297 298 298 298 299 300 300 301 302 303 305 306 307 307 308 308 309 309 309 309 309 309 310 310 310 311 311
226 226 225 223 222 221 220 219 218 218 218 218 218 219 219 220 221 222 224 227 230 233 236 239 243 247 252 257 263 268 274 279 284 289 293 296 297 297 296 296 296 297 297 298 298 298 298 299 300 301 302 303 304 305 306 307 307 308 308 308 308 308 309 309 309 310 310 310 310
225 225 223 222 221 220 219 218 217 217 217 217 218 218 219 220 221 223 226 228 231 234 237 240 244 248 253 258 264 270 276 281 287 291 294 295 296 296 296 296 297 297 298 298 298 298 298 299 300 301 302 303 304 305 305 306 306 306 307 307 307 308 309 309 310 310 310 310 311
225 224 222 221 220 219 218 217 216 216 216 217 218 219 220 221 223 225 227 229 231 234 237 240 244 249 254 260 265 271 278 284 289 292 294 294 295 296 297 298 298 298 298 297 297 297 298 299 300 301 302 302 303 303 303 304 304 305 306 306 307 308 308 309 310 310 311 311 311
225 224 223 222 220 219 218 217 216 216 216 217 218 219 220 222 224 225 227 229 231 233 236 240 245 250 255 261 267 273 280 286 289 292 293 294 296 297 299 299 299 299 298 297 297 297 298 299 300 301 301 301 301 301 302 303 304 305 305 306 307 308 308 309 310 311 311 312 313
226 225 224 222 221 219 218 216 216 216 216 217 218 219 221 222 224 225 227 228 230 233 236 241 246 251 256 262 268 275 281 286 289 292 294 296 298 300 301 301 300 299 298 297 297 297 298 299 300 301 301 301 302 302 303 304 305 306 306 307 308 308 308 309 310 311 312 312 313
227 225 224 222 221 219 217 216 216 216 217 218 219 220 221 222 224 225 226 228 230 233 237 241 246 251 257 263 270 278 283 286 290 293 296 299 301 302 302 301 300 298 298 298 297 298 299 300 300 301 302 303 303 304 305 306 306 306 307 307 307 308 308 309 310 311 311 312 312
226 225 223 222 220 218 217 216 216 217 217 218 219 220 221 222 223 224 225 227 230 233 237 242 246 252 258 265 273 279 284 288 291 295 299 302 304 304 302 301 299 298 298 298 298 298 298 299 300 301 302 303 304 305 305 306 306 306 306 307 307 308 308 309 310 310 311 311 312
226 224 223 221 219 218 217 216 216 217 217 218 219 220 221 222 222 223 225 227 230 234 238 242 247 253 260 268 274 280 285 289 294 298 302 304 305 304 302 300 299 299 298 298 298 298 298 299 299 300 301 302 303 303 303 304 305 305 306 307 308 308 309 309 310 310 311 311 312
227 225 222 220 218 217 216 216 216 217 217 218 219 220 220 221 222 224 226 228 231 234 238 243 249 256 262 269 275 281 287 292 297 301 304 305 305 304 302 301 300 299 298 298 297 297 298 298 299 299 300 301 301 302 302 303 304 305 306 307 308 308 309 309 309 310 310 311 312
227 225 222 220 218 217 216 216 216 217 217 218 218 219 220 221 222 224 226 229 232 235 240 245 251 257 263 269 276 283 289 294 299 302 304 305 304 303 302 301 300 299 299 298 297 297 297 297 298 298 299 300 300 300 301 302 303 304 305 306 307 307 308 308 308 309 310 311 311
227 225 222 219 218 217 216 216 216 216 217 217 218 219 220 221 223 225 227 230 233 237 242 247 252 258 264 270 277 285 291 296 300 302 304 304 304 303 302 301 301 300 299 298 297 297 296 297 297 297 298 298 299 299 300 301 302 303 304 305 306 306 306 306 307 307 309 310 311
227 224 221 219 217 217 216 216 215 215 216 217 218 219 220 222 224 226 228 231 235 238 243 248 253 258 265 271 279 286 292 297 300 301 302 302 302 302 302 302 301 301 300 298 297 296 296 296 296 296 296 297 298 298 299 301 302 303 304 304 305 305 305 305 306 307 308 309 310
226 223 220 218 217 216 215 215 215 215 216 217 218 219 221 222 225 227 230 233 236 240 244 249 254 259 266 273 280 286 292 296 299 300 300 301 301 302 302 302 302 302 300 298 297 296 295 295 295 295 295 296 297 298 299 300 301 302 303 303 304 304 304 304 305 306 307 309 310
224 221 218 216 215 215 214 214 214 215 215 217 218 220 222 223 226 228 231 235 238 242 246 250 256 262 268 275 281 286 291 295 297 298 299 300 301 302 302 303 304 303 301 298 296 295 294 294 294 294 295 295 296 297 298 299 300 301 302 302 303 303 303 304 305 306 307 308 309
221 219 216 215 214 213 213 213 214 215 216 217 219 221 223 225 228 230 233 236 240 243 248 252 258 264 270 276 282 286 290 293 295 297 298 299 300 302 303 304 304 303 301 299 296 295 294 293 293 293 294 295 295 296 298 299 299 300 301 301 302 302 303 304 304 305 306 307 307
219 217 215 213 212 212 212 213 214 215 217 219 221 223 225 227 230 232 235 238 242 246 250 255 260 265 271 276 281 286 289 292 294 296 298 300 301 303 304 305 305 303 301 299 297 295 294 293 293 293 293 294 295 296 297 298 299 300 301 301 302 303 303 304 304 304 305 306 307
217 215 213 212 212 212 212 214 215 217 219 221 223 225 227 229 231 234 237 241 244 249 253 258 262 267 272 277 281 285 288 292 294 297 299 301 302 304 304 305 305 304 302 299 297 295 294 293 292 292 293 293 294 295 296 297 298 299 301 302 303 303 304 304 304 305 305 306 307
214 212 212 211 212 212 213 215 217 219 221 224 225 227 229 231 233 236 240 244 248 252 256 261 265 270 274 278 282 285 289 291 294 297 300 302 303 304 305 305 305 304 303 300 298 295 294 292 292 291 291 292 293 294 295 296 297 299 300 302 303 304 305 305 305 305 305 306 307
212 211 211 211 212 213 215 217 219 222 224 225 227 229 231 233 236 239 243 247 251 255 259 263 268 272 276 280 283 286 289 292 295 298 301 303 304 305 305 305 305 305 303 301 298 296 294 292 291 290 290 291 291 292 294 295 296 298 299 301 303 304 305 304 304 305 305 306 307
210 209 210 211 213 215 217 219 222 224 226 227 229 230 233 235 239 243 247 250 254 258 262 266 270 274 277 280 283 286 290 293 296 299 301 303 304 305 305 305 305 305 303 302 299 297 294 292 291 290 289 289 290 291 292 294 295 296 298 300 302 303 303 303 302 302 303 304 304
209 209 210 212 214 217 219 222 224 226 228 229 230 233 236 239 242 245 249 253 257 261 265 269 272 275 278 281 284 287 291 294 297 300 302 303 304 305 305 305 305 304 304 302 300 297 295 292 290 289 288 288 289 290 291 292 293 295 297 299 300 301 301 300 300 299 299 300 301
Height
1513 1515 1516 1517 1517 1518 1519 1520 1521 1522 1523 1524 1525 1526 1527 1528 1530 1531 1533 1534 1535 1537 1538 1539 1540 1540 1541 1542 1542 1542 1543 1543 1543 1543 1543 1543 1542 1542 1542 1541 1541 1540 1540 1539 1539 1538 1537 1536 1535 1534 1533 1532 1531 1530 1529 1529 1528 1527 1526 1525 1524 1523 1523 1522 1521 1520 1520 1519 1518
1512 1514 1515 1516 1516 1517 1518 1519 1520 1521 1522 1523 1524 1525 1526 1527 1529 1530 1532 1533 1535 1535 1537 1538 1538 1539 1540 1540 1541 1541 1541 1541 1541 1541 1541 1541 1541 1541 1540 1540 1540 1539 1539 1538 1537 1536 1535 1535 1534 1532 1531 1530 1530 1529 1528 1527 1526 1525 1525 1524 1523 1522 1521 1520 1520 1519 1519 1518 1517
1511 1513 1514 1515 1515 1516 1517 1517 1518 1519 1520 1521 1522 1524 1525 1526 1528 1530 1531 1532 1534 1535 1535 1536 1537 1538 1539 1539 1539 1540 1540 1540 1540 1540 1540 1540 1540 1539 1539 1539 1538 1538 1537 1536 1535 1535 1534 1533 1532 1531 1530 1529 1528 1527 1527 1526 1525 1524 1523 1522 1522 1521 1520 1519 1519 1518 1517 1517 1516
1510 1511 1512 1513 1514 1514 1515 1516 1517 1518 1519 1520 1521 1523 1524 1525 1527 1529 1530 1531 1532 1533 1534 1535 1536 1536 1537 1538 1538 1538 1539 1539 1539 1539 1539 1538 1538 1538 1538 1537 1537 1536 1535 1535 1534 1533 1532 1531 1530 1530 1529 1528 1527 1526 1525 1525 1524 1523 1522 1521 1520 1520 1519 1518 1518 1517 1516 1515 1515
1509 1510 1511 1511 1512 1513 1514 1515 1516 1517 1518 1519 1520 1521 1523 1525 1526 1527 1529 1530 1531 1532 1533 1534 1535 1535 1536 1536 1537 1537 1537 1537 1537 1537 1537 1537 1537 1536 1536 1536 1535 1535 1534 1533 1532 1531 1530 1530 1529 1528 1527 1526 1525 1525 1524 1523 1522 1522 1521 1520 1519 1518 1518 1517 1516 1516 1515 1514 1514
1507 1508 1509 1510 1511 1512 1513 1514 1515 1516 1517 1518 1519 1520 1522 1523 1525 1526 1528 1529 1530 1531 1532 1533 1533 1534 1534 1535 1535 1535 1536 1536 1536 1536 1536 1535 1535 1535 1535 1534 1534 1533 1532 1531 1530 1530 1529 1528 1527 1526 1525 1525 1524 1523 1523 1522 1521 1520 1520 1519 1518 1517 1516 1516 1515 1515 1514 1513 1512
1506 1507 1508 1509 1510 1511 1512 1513 1514 1515 1516 1517 1519 1520 1521 1523 1524 1525 1527 1528 1529 1530 1530 1531 1532 1532 1533 1534 1534 1534 1534 1535 1535 1534 1534 1534 1534 1534 1533 1532 1532 1531 1530 1530 1529 1528 1527 1526 1525 1525 1524 1523 1523 1522 1521 1520 1520 1519 1518 1517 1516 1516 1515 1515 1514 1513 1513 1512 1511
1505 1506 1507 1508 1509 1510 1510 1511 1513 1514 1515 1516 1518 1519 1520 1522 1523 1525 1525 1526 1527 1528 1529 1530 1530 1531 1532 1532 1532 1533 1533 1533 1533 1533 1533 1532 1532 1532 1531 1531 1530 1530 1529 1528 1527 1526 1525 1525 1524 1523 1523 1522 1521 1520 1520 1519 1518 1518 1517 1516 1515 1515 1514 1513 1512 1512 1511 1510 1510
1504 1505 1506 1507 1507 1508 1509 1510 1512 1513 1514 1515 1517 1518 1520 1521 1522 1523 1524 1525 1526 1527 1528 1528 1529 1530 1530 1531 1531 1531 1531 1531 1531 1531 1531 1531 1530 1530 1530 1529 1528 1528 1527 1526 1525 1525 1524 1523 1522 1522 1521 1520 1520 1519 1518 1518 1517 1516 1515 1515 1514 1513 1513 1512 1511 1510 1510 1509 1508
1502 1503 1504 1505 1506 1507 1508 1510 1511 1512 1513 1515 1516 1517 1519 1520 1521 1522 1523 1524 1525 1525 1526 1527 1528 1528 1529 1529 1530 1530 1530 1530 1530 1530 1530 1529 1529 1528 1528 1527 1527 1526 1525 1525 1524 1523 1522 1522 1521 1520 1520 1519 1518 1517 1517 1516 1515 1515 1514 1514 1513 1512 1511 1510 1510 1509 1508 1507 1507
1501 1502 1503 1504 1505 1506 1507 1509 1510 1511 1512 1514 1515 1516 1518 1519 1520 1521 1522 1523 1523 1524 1525 1525 1526 1527 1527 1528 1528 1528 1528 1528 1528 1528 1528 1528 1527 1527 1526 1526 1525 1524 1524 1523 1522 1521 1521 1520 1520 1519 1518 1517 1517 1516 1515 1515 1514 1514 1513 1512 1511 1511 1510 1509 1508 1507 1506 1506 1505
1500 1500 1501 1503 1504 1505 1506 1508 1509 1510 1511 1513 1514 1515 1516 1517 1518 1519 1520 1521 1522 1522 1523 1524 1525 1525 1526 1526 1526 1526 1527 1527 1526 1526 1526 1526 1525 1525 1525 1524 1523 1523 1522 1521 1520 1520 1519 1519 1518 1517 1517 1516 1515 1515 1514 1513 1513 1512 1511 1511 1510 1509 1509 1508 1507 1506 1505 1504 1504
1498 1500 1500 1502 1503 1504 1506 1507 1508 1509 1510 1512 1513 1514 1515 1515 1516 1517 1518 1519 1520 1521 1521 1522 1523 1524 1524 1525 1525 1525 1525 1525 1525 1525 1525 1524 1524 1524 1523 1522 1522 1521 1520 1520 1519 1518 1518 1517 1517 1516 1515 1515 1514 1513 1512 1512 1511 1511 1510 1509 1509 1508 1507 1506 1505 1505 1504 1503 1502
1497 1498 1500 1501 1502 1503 1505 1506 1507 1508 1509 1510 1511 1512 1513 1514 1515 1515 1516 1517 1518 1519 1520 1521 1521 1522 1523 1523 1523 1523 1524 1524 1523 1523 1523 1523 1522 1522 1521 1520 1520 1519 1519 1518 1517 1517 1516 1516 1515 1515 1514 1513 1513 1512 1511 1510 1510 1509 1509 1508 1507 1506 1506 1505 1504 1503 1502 1501 1500
1496 1497 1498 1499 1500 1502 1503 1504 1505 1506 1507 1508 1508 1509 1510 1512 1513 1514 1515 1516 1517 1518 1519 1519 1520 1520 1521 1521 1522 1522 1522 1522 1522 1522 1521 1521 1521 1520 1520 1519 1518 1518 1517 1516 1516 1515 1515 1514 1514 1513 1513 1512 1511 1510 1510 1509 1508 1508 1507 1506 1505 1505 1504 1503 1502 1502 1501 1500 1499
1494 1495 1496 1497 1498 1499 1500 1501 1502 1503 1504 1505 1506 1507 1509 1510 1511 1512 1514 1515 1515 1516 1517 1518 1518 1519 1519 1520 1520 1520 1520 1520 1520 1520 1520 1520 1519 1518 1518 1517 1517 1516 1516 1515 1515 1514 1513 1513 1512 1512 1511 1510 1510 1509 1508 1508 1507 1506 1505 1505 1504 1503 1503 1502 1501 1500 1499 1498 1497
1492 1493 1494 1495 1495 1496 1497 1498 1499 1500 1502 1503 1505 1506 1508 1509 1510 1511 1512 1513 1514 1515 1515 1516 1517 1517 1518 1518 1518 1519 1519 1519 1519 1519 1518 1518 1517 1517 1516 1515 1515 1515 1514 1514 1513 1513 1512 1511 1511 1510 1510 1509 1508 1508 1507 1506 1505 1505 1504 1503 1502 1502 1501 1500 1500 1499 1498 1497 1496
1490 1490 1492 1493 1494 1495 1495 1497 1498 1499 1501 1502 1504 1505 1506 1508 1509 1510 1510 1511 1512 1513 1514 1515 1515 1516 1516 1516 1517 1517 1517 1517 1517 1517 1516 1516 1515 1515 1515 1514 1514 1513 1513 1512 1512 1511 1510 1510 1509 1509 1508 1507 1507 1506 1505 1505 1504 1503 1503 1502 1501 1500 1500 1499 1498 1497 1496 1495 1494
1488 1489 1490 1491 1492 1493 1494 1495 1497 1498 1500 1501 1503 1504 1505 1506 1507 1508 1509 1510 1511 1512 1512 1513 1514 1514 1515 1515 1515 1515 1516 1516 1515 1515 1515 1515 1514 1514 1513 1513 1512 1512 1512 1511 1510 1510 1509 1508 1508 1507 1506 1506 1505 1505 1504 1503 1503 1502 1501 1500 1500 1499 1498 1497 1496 1495 1495 1494 1493
1486 1487 1488 1489 1490 1491 1493 1494 1496 1497 1499 1500 1501 1502 1503 1504 1505 1506 1507 1508 1509 1510 1511 1512 1512 1513 1513 1514 1514 1514 1514 1514 1514 1514 1513 1513 1512 1512 1512 1511 1511 1510 1510 1510 1509 1508 1508 1507 1506 1505 1505 1504 1504 1503 1502 1501 1501 1500 1500 1499 1498 1497 1497 1496 1495 1494 1493 1492 1491
1485 1486 1487 1488 1489 1490 1492 1493 1495 1496 1497 1499 1500 1501 1502 1503 1504 1505 1506 1507 1508 1509 1510 1510 1511 1511 1512 1512 1512 1512 1512 1512 1512 1512 1511 1511 1511 1511 1510 1510 1510 1509 1508 1508 1507 1507 1506 1505 1505 1504 1503 1503 1502 1501 1501 1500 1499 1499 1498 1497 1497 1496 1495 1494 1493 1492 1491 1490 1489
1483 1485 1485 1487 1488 1489 1491 1492 1494 1495 1497 1498 1499 1500 1501 1502 1504 1505 1505 1506 1507 1508 1508 1509 1509 1510 1510 1510 1511 1511 1511 1511 1510 1510 1510 1510 1510 1510 1509 1509 1508 1507 1507 1506 1505 1505 1505 1504 1503 1502 1502 1501 1500 1500 1499 1499 1498 1497 1496 1496 1495 1494 1493 1493 1492 1490 1490 1489 1487
1482 1483 1485 1486 1487 1489 1490 1492 1494 1495 1496 1497 1498 1500 1500 1502 1503 1504 1505 1505 1506 1506 1507 1507 1508 1508 1509 1509 1509 1509 1509 1509 1509 1509 1509 1509 1508 1508 1507 1507 1506 1506 1505 1505 1504 1503 1503 1502 1501 1501 1500 1500 1499 1498 1498 1497 1496 1495 1495 1494 1493 1493 1492 1491 1490 1489 1488 1487 1486
1481 1483 1484 1486 1487 1489 1490 1491 1493 1494 1495 1496 1497 1498 1500 1500 1501 1502 1503 1504 1505 1505 1505 1506 1506 1507 1507 1508 1508 1508 1508 1507 1507 1508 1507 1507 1507 1506 1506 1505 1505 1504 1504 1503 1502 1502 1501 1500 1500 1499 1499 1498 1497 1497 1496 1495 1495 1494 1493 1492 1491 1491 1490 1489 1488 1487 1486 1485 1484
1481 1482 1484 1485 1487 1488 1489 1490 1492 1493 1494 1495 1496 1497 1498 1499 1500 1501 1502 1502 1503 1504 1504 1505 1505 1505 1506 1506 1506 1506 1506 1506 1506 1506 1506 1505 1505 1505 1504 1504 1503 1502 1502 1501 1501 1500 1500 1499 1498 1497 1497 1496 1495 1495 1494 1493 1493 1492 1491 1490 1490 1489 1488 1487 1486 1485 1484 1483 1482
1480 1482 1483 1484 1485 1487 1488 1489 1490 1491 1493 1494 1495 1496 1497 1498 1499 1500 1500 1501 1502 1502 1503 1503 1504 1504 1504 1505 1505 1505 1505 1505 1505 1505 1504 1504 1503 1503 1502 1502 1501 1501 1500 1500 1499 1499 1498 1497 1496 1496 1495 1494 1493 1492 1491 1491 1490 1490 1489 1488 1488 1487 1486 1485 1484 1483 1482 1481 1480
1479 1480 1481 1483 1484 1485 1486 1488 1489 1490 1491 1493 1494 1495 1496 1497 1498 1499 1499 1500 1500 1501 1501 1502 1502 1503 1503 1503 1503 1503 1503 1504 1503 1503 1503 1502 1501 1501 1501 1500 1500 1499 1499 1498 1497 1497 1496 1495 1495 1494 1493 1492 1491 1490 1490 1489 1488 1488 1487 1486 1485 1485 1484 1483 1482 1481 1480 1480 1479
1477 1479 1480 1481 1483 1484 1485 1486 1488 1489 1490 1492 1493 1494 1495 1496 1497 1497 1498 1499 1499 1500 1500 1501 1501 1501 1502 1502 1502 1502 1502 1502 1501 1501 1501 1500 1500 1500 1499 1499 1498 1497 1497 1496 1496 1495 1495 1494 1493 1493 1492 1491 1490 1489 1488 1487 1486 1486 1485 1484 1483 1483 1482 1481 1480 1479 1478 1477 1477
1476 1477 1479 1480 1481 1483 1484 1485 1486 1488 1489 1490 1492 1493 1494 1495 1495 1496 1497 1497 1498 1499 1499 1499 1500 1500 1500 1500 1500 1500 1500 1500 1500 1499 1499 1499 1499 1498 1498 1497 1496 1496 1495 1495 1494 1494 1493 1492 1492 1491 1490 1490 1488 1487 1486 1485 1485 1484 1483 1482 1481 1481 1480 1479 1478 1477 1476 1475 1475
1475 1476 1477 1479 1480 1481 1482 1484 1485 1487 1488 1490 1491 1492 1493 1494 1494 1495 1495 1496 1497 1497 1498 1498 1498 1499 1499 1499 1499 1499 1499 1498 1498 1498 1497 1497 1497 1496 1496 1495 1495 1494 1494 1493 1492 1492 1491 1491 1490 1489 1489 1488 1487 1486 1485 1484 1483 1482 1481 1480 1480 1479 1478 1477 1476 1475 1475 1474 1472
1474 1475 1476 1477 1479 1480 1481 1483 1485 1486 1487 1489 1490 1490 1491 1492 1493 1494 1495 1495 1495 1496 1496 1497 1497 1497 1497 1497 1497 1497 1497 1496 1496 1496 1496 1496 1495 1495 1495 1494 1493 1493 1492 1491 1491 1490 1490 1489 1488 1488 1487 1486 1485 1484 1483 1482 1481 1480 1479 1479 1478 1477 1476 1475 1474 1473 1473 1471 1470
1472 1473 1475 1476 1477 1479 1480 1482 1484 1485 1486 1487 1488 1490 1490 1491 1492 1493 1493 1494 1494 1495 1495 1495 1495 1495 1496 1495 1495 1495 1495 1495 1495 1494 1494 1494 1494 1493 1493 1492 1491 1491 1490 1490 1489 1488 1488 1487 1487 1486 1485 1484 1483 1482 1481 1480 1479 1478 1477 1476 1476 1475 1474 1473 1472 1471 1470 1470 1469
1471 1472 1473 1475 1476 1478 1480 1481 1482 1484 1485 1486 1487 1488 1489 1490 1491 1491 1492 1492 1493 1493 1493 1494 1494 1494 1494 1494 1494 1494 1493 1493 1493 1493 1492 1492 1492 1491 1491 1490 1490 1489 1489 1488 1487 1487 1486 1485 1485 1484 1483 1482 1481 1480 1479 1478 1477 1476 1475 1474 1474 1473 1472 1471 1470 1469 1468 1467 1466
1469 1471 1472 1474 1475 1477 1479 1480 1481 1483 1484 1485 1486 1487 1488 1489 1490 1490 1490 1491 1491 1492 1492 1492 1492 1492 1492 1492 1492 1492 1492 1491 1491 1491 1491 1490 1490 1490 1489 1489 1488 1487 1487 1486 1485 1485 1484 1484 1483 1482 1481 1480 1479 1478 1477 1476 1475 1474 1473 1472 1471 1471 1470 1469 1468 1467 1466 1465 1465
1468 1470 1471 1473 1474 1476 1478 1479 1480 1482 1483 1484 1485 1486 1487 1487 1488 1489 1489 1490 1490 1490 1490 1490 1490 1490 1490 1490 1490 1490 1490 1490 1490 1489 1489 1489 1488 1488 1487 1486 1486 1485 1485 1484 1484 1483 1482 1482 1481 1480 1479 1478 1477 1476 1475 1474 1473 1472 1471 1470 1470 1469 1468 1467 1466 1465 1464 1463 1462
1467 1468 1470 1472 1473 1475 1476 1478 1480 1481 1482 1483 1484 1485 1485 1486 1487 1487 1488 1488 1488 1489 1489 1489 1489 1489 1489 1489 1489 1489 1488 1488 1488 1487 1487 1487 1486 1485 1485 1485 1484 1484 1483 1482 1481 1481 1480 1480 1479 1478 1477 1476 1475 1474 1473 1472 1470 1470 1469 1468 1467 1466 1465 1465 1463 1462 1461 1461 1460
1466 1467 1469 1471 1472 1474 1475 1477 1478 1480 1481 1482 1483 1484 1484 1485 1485 1486 1486 1486 1487 1487 1487 1487 1487 1487 1487 1487 1487 1487 1487 1486 1486 1486 1485 1485 1484 1483 1483 1482 1482 1481 1481 1480 1480 1479 1478 1477 1477 1476 1475 1474 1473 1471 1470 1469 1468 1467 1466 1465 1465 1464 1463 1462 1461 1460 1459 1458 1458
1465 1467 1469 1470 1472 1473 1475 1476 1477 1479 1480 1481 1482 1483 1483 1484 1484 1484 1485 1485 1485 1485 1485 1485 1485 1485 1485 1485 1485 1485 1485 1485 1484 1484 1483 1482 1482 1481 1481 1480 1480 1479 1479 1478 1477 1477 1476 1475 1475 1474 1473 1472 1470 1469 1468 1467 1466 1465 1464 1463 1462 1461 1460 1459 1458 1457 1456 1455 1455
1464 1466 1468 1470 1471 1473 1474 1475 1477 1478 1479 1480 1481 1481 1482 1482 1483 1483 1483 1483 1484 1484 1484 1484 1484 1484 1484 1483 1483 1483 1483 1483 1482 1482 1481 1480 1480 1479 1479 1478 1477 1477 1477 1476 1475 1475 1474 1473 1472 1471 1470 1470 1468 1467 1466 1465 1463 1462 1461 1460 1459 1458 1457 1456 1456 1455 1454 1453 1452
1464 1465 1467 1469 1470 1472 1473 1475 1476 1477 1478 1479 1480 1480 1480 1481 1481 1481 1482 1482 1482 1482 1482 1482 1482 1482 1482 1482 1481 1481 1481 1480 1480 1480 1479 1478 1478 1477 1476 1476 1475 1475 1474 1474 1473 1472 1472 1471 1470 1469 1468 1467 1466 1465 1464 1462 1461 1460 1459 1458 1457 1456 1455 1454 1453 1452 1451 1450 1450
1463 1465 1467 1469 1470 1471 1473 1474 1475 1476 1477 1478 1479 1479 1479 1480 1480 1480 1480 1480 1480 1480 1480 1480 1480 1480 1480 1480 1480 1479 1479 1478 1478 1477 1477 1476 1475 1475 1474 1474 1473 1472 1472 1471 1471 1470 1470 1469 1468 1467 1466 1465 1464 1462 1461 1460 1459 1457 1456 1455 1455 1454 1453 1451 1451 1450 1449 1449 1448